TimeCDT,TemperatureF,Dew PointF,Humidity,Sea Level PressureIn,VisibilityMPH,Wind Direction,Wind SpeedMPH,Gust SpeedMPH,PrecipitationIn,Events,Conditions,WindDirDegrees,DateUTC
12:15 AM,69.8,59.0,68,29.99,10.0,Calm,Calm,-,N/A,,Clear,0,2013-09-08 05:15:00
12:55 AM,69.8,59.0,68,29.98,10.0,Calm,Calm,-,N/A,,Clear,0,2013-09-08 05:55:00
1:15 AM,69.8,59.0,68,29.98,10.0,Calm,Calm,-,N/A,,Clear,0,2013-09-08 06:15:00
1:35 AM,69.8,59.0,68,29.98,10.0,Calm,Calm,-,N/A,,Clear,0,2013-09-08 06:35:00
2:36 AM,68.0,59.0,73,29.96,10.0,Calm,Calm,-,N/A,,Clear,0,2013-09-08 07:36:00
2:55 AM,68.0,59.0,73,29.96,9.0,SE,3.5,-,N/A,,Clear,140,2013-09-08 07:55:00
3:15 AM,66.2,57.2,73,29.96,7.0,South,3.5,-,N/A,,Clear,180,2013-09-08 08:15:00
3:35 AM,66.2,57.2,73,29.96,8.0,Calm,Calm,-,N/A,,Clear,0,2013-09-08 08:35:00
3:55 AM,68.0,57.2,68,29.96,10.0,Calm,Calm,-,N/A,,Clear,0,2013-09-08 08:55:00
4:15 AM,69.8,59.0,68,29.96,10.0,Calm,Calm,-,N/A,,Clear,0,2013-09-08 09:15:00
4:35 AM,66.2,57.2,73,29.96,8.0,ENE,3.5,-,N/A,,Clear,70,2013-09-08 09:35:00
4:56 AM,66.2,57.2,73,29.96,7.0,Calm,Calm,-,N/A,,Clear,0,2013-09-08 09:56:00
5:15 AM,66.2,57.2,73,29.96,7.0,Calm,Calm,-,N/A,,Clear,0,2013-09-08 10:15:00
5:55 AM,64.4,57.2,77,29.96,4.0,Calm,Calm,-,N/A,,Clear,0,2013-09-08 10:55:00
6:15 AM,66.2,57.2,73,29.97,5.0,Calm,Calm,-,N/A,,Clear,0,2013-09-08 11:15:00
6:35 AM,66.2,57.2,73,29.97,7.0,Calm,Calm,-,N/A,,Clear,0,2013-09-08 11:35:00
6:55 AM,66.2,57.2,73,29.97,3.0,Calm,Calm,-,N/A,,Clear,0,2013-09-08 11:55:00
7:15 AM,64.4,57.2,77,29.97,3.0,Calm,Calm,-,N/A,,Clear,0,2013-09-08 12:15:00
7:35 AM,66.2,57.2,73,29.97,5.0,Calm,Calm,-,N/A,,Clear,0,2013-09-08 12:35:00
7:55 AM,66.2,59.0,78,29.97,6.0,Calm,Calm,-,N/A,,Clear,0,2013-09-08 12:55:00
8:35 AM,71.6,60.8,69,29.98,10.0,Calm,Calm,-,N/A,,Clear,0,2013-09-08 13:35:00
8:55 AM,73.4,60.8,65,29.98,10.0,Calm,Calm,-,N/A,,Clear,0,2013-09-08 13:55:00
9:16 AM,75.2,60.8,61,29.99,10.0,Calm,Calm,-,N/A,,Clear,0,2013-09-08 14:16:00
9:35 AM,77.0,62.6,61,29.99,10.0,SSE,3.5,-,N/A,,Clear,150,2013-09-08 14:35:00
9:55 AM,80.6,62.6,54,29.99,10.0,South,4.6,-,N/A,,Clear,170,2013-09-08 14:55:00
10:16 AM,82.4,62.6,51,29.99,10.0,South,3.5,-,N/A,,Clear,180,2013-09-08 15:16:00
10:35 AM,84.2,62.6,48,29.99,10.0,SW,5.8,-,N/A,,Clear,230,2013-09-08 15:35:00
10:55 AM,87.8,62.6,43,29.99,10.0,WSW,6.9,-,N/A,,Clear,250,2013-09-08 15:55:00
11:35 AM,89.6,62.6,40,29.99,10.0,West,5.8,-,N/A,,Clear,280,2013-09-08 16:35:00
11:55 AM,91.4,62.6,38,29.99,10.0,WNW,5.8,-,N/A,,Clear,300,2013-09-08 16:55:00
12:15 PM,91.4,62.6,38,29.99,10.0,West,8.1,-,N/A,,Clear,270,2013-09-08 17:15:00
12:35 PM,91.4,62.6,38,29.99,10.0,West,3.5,-,N/A,,Clear,270,2013-09-08 17:35:00
1:15 PM,93.2,64.4,38,29.97,10.0,NE,3.5,-,N/A,,Clear,50,2013-09-08 18:15:00
1:36 PM,95.0,64.4,36,29.97,10.0,NE,4.6,-,N/A,,Clear,50,2013-09-08 18:36:00
2:15 PM,96.8,64.4,34,29.95,10.0,North,9.2,-,N/A,,Clear,360,2013-09-08 19:15:00
2:35 PM,93.2,62.6,36,29.95,10.0,North,6.9,-,N/A,,Clear,350,2013-09-08 19:35:00
2:55 PM,93.2,62.6,36,29.94,10.0,North,6.9,-,N/A,,Clear,10,2013-09-08 19:55:00
3:15 PM,93.2,62.6,36,29.94,10.0,North,5.8,-,N/A,,Scattered Clouds,10,2013-09-08 20:15:00
3:35 PM,93.2,62.6,36,29.94,10.0,NNE,8.1,-,N/A,,Partly Cloudy,30,2013-09-08 20:35:00
3:56 PM,91.4,62.6,38,29.93,10.0,North,5.8,-,N/A,,Clear,10,2013-09-08 20:56:00
4:15 PM,91.4,62.6,38,29.93,10.0,NE,4.6,-,N/A,,Clear,40,2013-09-08 21:15:00
4:35 PM,91.4,62.6,38,29.92,10.0,NNE,4.6,-,N/A,,Clear,30,2013-09-08 21:35:00
4:55 PM,93.2,62.6,36,29.92,10.0,North,4.6,-,N/A,,Clear,350,2013-09-08 21:55:00
5:15 PM,93.2,64.4,38,29.92,10.0,NNE,4.6,-,N/A,,Clear,30,2013-09-08 22:15:00
5:35 PM,91.4,64.4,41,29.91,10.0,Calm,Calm,-,N/A,,Clear,0,2013-09-08 22:35:00
5:55 PM,91.4,64.4,41,29.91,10.0,East,3.5,-,N/A,,Clear,90,2013-09-08 22:55:00
6:15 PM,89.6,64.4,43,29.91,10.0,East,3.5,-,N/A,,Clear,90,2013-09-08 23:15:00
6:35 PM,89.6,64.4,43,29.91,10.0,Calm,Calm,-,N/A,,Clear,0,2013-09-08 23:35:00
6:55 PM,87.8,66.2,49,29.91,10.0,Calm,Calm,-,N/A,,Clear,0,2013-09-08 23:55:00
7:15 PM,84.2,66.2,55,29.91,10.0,Calm,Calm,-,N/A,,Clear,0,2013-09-09 00:15:00
7:55 PM,82.4,66.2,58,29.92,10.0,Calm,Calm,-,N/A,,Clear,0,2013-09-09 00:55:00
8:15 PM,82.4,64.4,54,29.93,10.0,Calm,Calm,-,N/A,,Clear,0,2013-09-09 01:15:00
8:35 PM,80.6,64.4,58,29.94,10.0,Calm,Calm,-,N/A,,Clear,0,2013-09-09 01:35:00
8:55 PM,80.6,64.4,58,29.94,10.0,NE,3.5,-,N/A,,Clear,50,2013-09-09 01:55:00
9:15 PM,80.6,66.2,61,29.95,10.0,Calm,Calm,-,N/A,,Clear,0,2013-09-09 02:15:00
9:35 PM,78.8,64.4,61,29.95,10.0,Calm,Calm,-,N/A,,Clear,0,2013-09-09 02:35:00
9:55 PM,78.8,64.4,61,29.95,10.0,Calm,Calm,-,N/A,,Clear,0,2013-09-09 02:55:00
10:15 PM,78.8,64.4,61,29.95,10.0,Calm,Calm,-,N/A,,Clear,0,2013-09-09 03:15:00
10:35 PM,77.0,64.4,65,29.96,10.0,Calm,Calm,-,N/A,,Clear,0,2013-09-09 03:35:00
11:15 PM,75.2,64.4,69,29.96,10.0,Calm,Calm,-,N/A,,Clear,0,2013-09-09 04:15:00
11:35 PM,75.2,64.4,69,29.96,10.0,Calm,Calm,-,N/A,,Clear,0,2013-09-09 04:35:00
11:56 PM,75.2,64.4,69,29.96,10.0,Calm,Calm,-,N/A,,Clear,0,2013-09-09 04:56:00